IRIS (39197 NORAD) Tracking and Keplerian Element Data

This shows tracking and keplerian element data for the satellite.

Feedback or suggestion? Click here.




ElementValue
Catalog39197
NameIRIS
Epoch Orbit27256
Epoch Day198.94389123
Epoch Year2018
RAAN19.6729
Inclination97.9391
Eccentricity0.0027122
Argument of Perigee338.1638
Mean Anonmoly21.8415
Mean Motion14.78544963
Decay Rate4.6E-07
L11 39197U 13033A 18198.94389123 .00000046 00000-0 13536-4 0 9997
L22 39197 97.9391 19.6729 0027122 338.1638 21.8415 14.78544963272563

Live tracking and technical data element details for IRIS (NORAD 39197). IRIS can be tracked NOW for your location showing map with azimuth and elevation plus other details from your city location.

Track the satellite on the map from your city or location and see movement details for azimuth, elevation, latitude, longitude, range, height, and movement on the map or in text.







IsCatalogInMostPopularTable: catalog: 39197, numindb: 57
Update: records affected: 1



GetName: 39197 IRIS

Hit Count: updated at: Wed, 18 Jul 2018 20:23:35 GMT